{"data":{"norad_id":58221,"epoch":"2026-05-25T05:25:23.291328Z","epoch_age_seconds":48715,"freshness":"FRESH","line1":"1 58221U 23170R   26145.22596402  .00002379  00000+0  95923-4 0  9991","line2":"2 58221  42.9996 122.0775 0001613 269.8249  90.2418 15.27592915142001","mean_motion":15.27592915,"eccentricity":0.0001613,"inclination_deg":42.9996,"raan_deg":122.0775,"arg_perigee_deg":269.8249,"mean_anomaly_deg":90.2418,"bstar":9.5923e-5,"rev_number":14200,"period_min":94.265951737541,"perigee_km":481.90372107645,"apogee_km":484.11712723548,"semimajor_km":6861.147424156,"source":"CELESTRAK","updated_at":"2026-05-25T13:38:18.577173Z"}}